Location: M?digepalle
(16.1753°N, 80.3496°E)
Time: 08:43:07
(UTC+00:00)

Cosmos 2297 Rocket - Pass Details

Date: 29 October 2020
Orbit: 838 x 845 km, 71.0° (Epoch: 27 November)

Event Time Altitude Azimuth Distance (km) Brightness Sun altitude
Rises 12:34:02 0° 3° (N) 3,394 5.2 -6.5°
Reaches altitude 10° 12:36:57 10° 17° (NNE) 2,458 4.3 -7.2°
Maximum altitude 12:41:25 24° 69° (ENE) 1,685 3.2 -8.3°
Drops below altitude 10° 12:45:51 10° 122° (ESE) 2,453 4.2 -9.3°
Sets 12:48:45 0° 136° (SE) 3,385 5.0 -10.0°
